GFSNGP_con_mlcape_000.txt.gz
CAPE
0 0 0 1 2 2 11 13 10 14 25 0 0 0 0 0 21 386 482 591 535 445 389 516 446 403 273 99 22 9 0 0 0 0 47 0 64 175 201 168 135 277 274 382
0 0 0 0 0 0 6 19 28 23 2 0 0 0 0 0 0 107 405 533 616 570 503 567 470 335 55 69 3 37 92 11 0 73 234 320 175 241 211 117 92 210 260 287
14 2 4 3 2 2 17 18 8 0 0 0 0 0 0 0 0 5 164 474 476 547 578 563 364 8 6 8 0 84 176 46 58 274 301 286 76 142 148 243 274 189 215 309
102 66 17 34 16 1 15 12 0 0 0 0 0 0 0 0 0 0 17 342 491 546 598 478 44 0 1 0 42 163 179 154 164 276 325 330 144 106 139 279 236 181 224 386
103 65 33 24 0 0 6 22 0 1 0 0 0 0 0 0 0 38 146 419 551 582 508 149 12 0 15 68 66 80 107 172 156 267 372 416 278 264 320 265 123 108 262 423
56 23 32 73 46 4 11 7 0 0 0 0 0 0 11 1 3 162 303 522 604 436 186 103 64 29 142 169 202 123 101 135 82 235 447 355 331 291 279 267 168 247 276 403
7 23 19 88 8 0 0 16 0 0 0 0 0 34 187 165 54 211 328 427 481 304 106 92 281 294 170 253 262 231 151 87 104 465 701 710 350 348 299 410 371 376 487 503
21 49 52 2 0 0 88 0 0 0 0 0 50 358 237 321 333 313 322 307 383 270 196 313 648 777 712 651 605 424 287 352 684 726 689 254 623 447 314 431 140 412 560 464
82 177 42 0 5 0 0 0 0 31 93 140 297 290 302 413 475 428 383 309 291 373 642 874 920 1100 993 1050 1002 856 1205 789 350 119 371 793 662 535 355 280 212 143 240 195
0 50 0 0 0 0 0 0 10 13 17 188 442 249 337 469 500 492 486 475 484 550 587 594 615 804 1004 1132 1383 885 593 290 304 598 724 777 441 364 345 192 290 312 239 196
0 0 0 0 0 0 0 0 0 0 24 255 316 181 116 89 122 166 232 256 256 322 455 557 773 857 767 685 457 440 431 452 600 503 477 473 499 184 205 0 26 29 181 120
0 0 0 0 0 0 0 0 0 71 135 163 139 26 0 8 128 193 321 303 376 407 459 473 376 383 455 514 546 579 520 396 328 255 213 131 175 29 0 0 0 0 0 0
0 0 0 0 0 0 0 0 0 11 9 1 8 1 2 94 228 75 279 380 503 490 385 385 334 390 373 427 430 475 426 303 152 58 63 249 379 125 0 0 0 0 0 0
0 0 0 0 0 0 0 0 0 0 16 33 34 32 73 138 61 232 325 441 401 354 321 277 235 252 145 168 225 276 267 29 73 193 288 291 201 110 25 2 15 7 0 0
0 0 0 0 0 0 0 0 0 1 56 76 99 134 93 161 223 411 382 286 328 309 281 212 201 244 162 87 72 182 152 206 383 190 52 1 0 0 0 0 1 1 2 0
0 0 0 0 0 0 0 0 0 0 29 111 262 293 251 384 405 473 455 405 443 401 351 335 258 190 104 307 202 40 38 35 17 2 0 0 0 0 0 0 0 1 0 1
0 0 0 0 0 0 0 0 0 0 6 185 353 412 367 491 621 619 565 534 584 552 330 209 275 208 344 158 117 56 32 22 0 1 0 0 0 0 0 0 0 0 1 0
0 0 0 0 0 0 0 0 0 0 0 274 436 441 399 415 465 460 383 511 445 134 8 47 42 218 237 106 82 52 25 19 34 11 1 0 0 0 2 0 2 3 1 0
0 0 0 0 43 8 0 0 15 247 360 325 248 191 164 228 339 354 309 351 251 71 0 1 0 48 113 69 62 34 3 0 0 0 0 0 0 0 0 0 0 0 0 0
0 0 0 0 9 1 47 296 321 206 54 19 29 48 64 122 138 171 62 37 1 0 0 0 0 0 0 0 0 0 0 0 0 0 0 0 0 0 0 0 0 0 0 0
5 67 138 45 92 331 422 254 132 116 79 77 67 32 26 47 29 33 0 0 0 0 0 0 0 0 0 0 0 0 0 0 0 0 0 0 0 0 0 0 0 0 0 0
345 293 379 418 372 335 218 128 127 81 73 56 16 17 23 27 6 0 0 1 0 0 0 0 0 0 0 0 0 0 0 0 0 0 0 0 0 0 0 0 0 0 0 0
243 357 408 325 291 266 147 194 186 91 66 42 1 4 9 9 4 7 3 0 0 0 0 0 0 0 0 0 0 0 0 0 0 0 0 0 0 0 0 0 0 0 0 0
193 250 277 288 284 277 286 238 150 101 57 30 12 6 0 0 0 0 0 0 0 0 0 0 0 0 0 0 0 0 0 0 0 0 0 0 0 0 0 0 0 0 0 0
195 182 166 127 116 75 106 56 25 4 1 1 0 1 7 17 19 10 3 0 0 0 0 0 0 0 0 0 0 0 0 0 0 0 0 0 0 0 0 0 0 0 0 0
14 9 5 2 4 6 9 17 18 17 16 26 25 21 39 18 8 3 1 5 0 0 0 0 0 0 0 0 0 0 0 0 0 0 0 0 0 0 0 0 0 0 0 0
6 5 12 11 8 4 7 20 32 37 27 16 32 39 34 31 18 5 1 6 4 0 0 0 0 0 0 0 0 0 0 0 0 0 0 0 0 0 0 0 0 0 0 0

GFSNGP_con_mlcape_006.txt.gz
CAPE
0 0 1 3 0 0 0 0 0 34 1 11 0 0 0 0 0 0 15 304 1118 1279 1484 1699 1712 1159 927 391 174 98 69 72 79 168 313 465 496 386 320 324 414 384 197 310
0 0 0 0 0 20 0 0 0 6 20 1 29 0 0 0 0 0 0 0 180 1491 1233 2154 1880 1278 773 378 355 87 176 151 170 259 356 434 603 699 528 550 399 317 274 347
0 0 0 0 0 1 22 17 1 8 65 141 11 0 0 0 0 0 0 0 9 634 1479 2342 1825 1289 636 517 350 171 309 269 299 352 393 515 612 544 554 354 331 378 346 433
0 2 29 0 13 34 36 20 1 49 0 4 12 0 0 0 0 0 0 1 20 440 1135 1858 1634 1175 1055 648 294 478 547 607 587 591 613 724 739 545 512 518 479 357 386 448
26 0 4 51 125 152 36 44 83 141 92 80 8 0 62 18 0 11 65 263 312 106 757 1790 1479 1179 1109 575 465 625 646 711 820 758 770 822 879 717 582 562 408 505 474 394
15 183 48 69 207 65 35 0 40 39 60 42 13 0 225 173 132 130 207 414 444 547 944 1818 1497 1355 1009 474 621 631 678 915 1020 951 965 921 896 681 712 616 369 36 376 549
98 79 0 51 87 28 0 0 43 19 7 6 6 11 199 245 154 211 321 701 994 1019 1332 1797 1448 1142 621 406 605 806 922 1033 999 1087 1079 956 957 876 821 463 42 417 577 426
0 2 0 147 268 45 279 7 57 53 35 22 8 6 26 68 244 191 299 672 1026 1369 1656 1592 1272 1010 411 551 834 1211 1139 1042 1116 1178 976 796 787 671 503 406 506 553 383 330
247 223 120 307 380 97 83 71 3 1 2 9 13 14 0 0 138 354 353 582 1024 1266 1488 1341 974 539 909 1225 1542 1678 1661 1551 1312 1284 1005 1019 813 405 623 643 550 418 276 167
3 0 0 13 12 23 27 0 0 0 0 0 7 16 39 59 395 599 381 662 697 1211 1417 873 1232 1476 1847 1963 1862 1867 1940 2119 1774 1535 1468 1239 767 911 774 686 272 217 128 101
169 4 14 0 1 1 5 0 0 0 0 1 51 121 222 277 723 832 621 646 352 831 787 400 189 150 304 1056 1533 2199 2282 2096 1708 1483 1187 903 163 81 349 0 0 5 0 0
17 0 0 0 0 0 0 0 0 0 0 13 146 381 850 1343 1166 1017 20 771 211 205 184 0 0 66 2 6 753 1219 1238 1140 1009 915 411 506 101 0 0 0 0 0 0 0
0 0 0 0 0 0 0 0 0 0 0 37 93 496 782 813 967 692 632 376 42 0 0 0 1 296 858 730 744 844 834 738 455 152 210 394 385 479 214 0 0 0 0 0
0 0 0 0 0 0 0 0 0 0 0 0 38 188 463 885 545 625 408 127 151 114 87 165 506 693 714 540 473 503 446 173 167 95 332 530 541 393 290 296 57 0 0 0
0 0 0 0 0 0 0 0 0 0 0 0 0 157 463 464 354 263 465 333 201 264 410 504 548 543 311 272 276 279 250 278 335 476 307 212 119 61 35 3 0 1 1 0
0 0 0 0 0 0 0 0 0 0 0 0 0 0 246 443 231 89 513 355 361 408 505 502 515 593 376 300 362 357 274 26 221 339 27 99 19 5 0 0 0 2 0 0
0 0 0 0 0 0 0 0 0 0 0 0 0 0 83 463 739 721 635 480 414 630 607 592 592 590 491 561 445 258 185 64 48 148 24 0 0 0 0 0 5 0 0 0
0 0 0 0 0 0 0 0 0 0 0 0 0 0 0 77 759 463 745 705 383 108 704 737 748 684 638 415 420 159 95 47 51 177 29 30 19 16 1 0 4 0 0 0
0 0 0 0 0 0 0 0 0 0 3 0 3 516 871 924 1171 617 203 73 146 303 417 565 291 451 511 365 220 166 77 30 23 0 0 0 0 0 2 1 4 0 4 0
0 0 0 0 0 0 0 0 0 0 65 93 207 745 867 714 531 57 0 2 101 341 403 189 145 209 372 194 3 0 0 0 0 0 0 0 0 0 0 0 0 0 0 0
0 1 8 14 12 1 0 0 3 46 240 482 543 600 578 430 420 384 263 54 37 39 82 0 60 66 11 0 0 0 0 1 7 4 6 1 0 0 0 0 0 0 0 0
14 16 18 15 21 27 43 355 387 337 634 625 648 591 308 199 313 232 165 44 2 0 0 0 0 0 2 0 0 0 3 2 1 1 0 0 0 0 0 0 0 0 0 0
25 76 40 96 139 172 497 310 553 402 408 443 269 204 222 104 47 18 47 0 0 0 0 0 0 0 0 0 0 0 2 1 0 0 0 0 0 0 0 0 0 0 0 0
29 22 31 28 59 65 132 160 294 287 269 268 207 153 159 79 27 3 0 0 0 0 0 0 0 0 0 0 0 0 0 0 0 0 0 0 0 0 0 0 0 0 0 0
9 2 13 76 29 38 289 271 252 292 246 189 92 39 54 7 7 1 2 0 0 0 3 0 0 0 0 0 0 0 0 0 0 0 0 0 0 0 0 0 0 0 0 0
9 30 11 7 10 27 20 28 25 33 22 130 52 22 19 11 1 2 14 4 6 1 0 0 0 0 0 0 0 0 0 0 0 0 0 0 0 0 0 0 0 0 0 0
14 2 15 13 11 9 12 6 3 22 37 60 48 39 44 19 2 3 1 4 9 12 4 8 0 0 0 0 0 2 0 0 0 0 0 0 0 0 0 0 0 0 0 0

GFSNGP_con_mlcape_009.txt.gz
CAPE
0 0 0 0 0 0 0 0 0 15 65 5 6 0 0 0 0 0 34 302 1067 1189 1687 1439 1317 933 713 413 359 312 279 233 187 91 47 90 104 151 257 73 106 99 162 153
0 0 0 0 0 0 2 0 0 0 76 22 62 3 0 0 0 0 0 0 228 1372 1380 1546 1418 994 684 319 214 143 211 192 159 105 43 54 87 150 206 153 116 330 133 94
0 0 0 0 0 0 0 3 1 0 10 118 22 2 0 0 0 0 0 0 0 0 1173 1472 1494 1162 540 140 89 166 156 113 44 14 14 67 166 249 460 399 450 104 108 277
0 0 0 0 0 0 8 33 25 33 65 45 20 0 0 0 0 0 0 0 0 0 513 1737 1511 1037 449 274 101 5 0 48 58 64 122 168 280 346 351 398 221 174 193 109
12 0 0 0 0 116 131 58 44 109 162 34 0 3 10 0 0 0 30 131 164 132 1082 1784 1561 1070 566 283 68 21 1 56 171 170 178 274 434 528 520 474 330 309 312 141
60 52 17 4 62 125 157 136 74 39 74 87 0 2 2 2 50 97 122 159 107 198 835 1495 1437 844 632 376 298 240 153 274 371 444 465 534 629 656 713 569 394 413 179 39
18 3 0 28 157 99 22 14 38 6 0 1 69 219 165 82 118 189 183 288 324 362 1323 1661 1217 888 597 452 535 340 339 502 680 726 752 751 772 774 765 617 384 219 79 293
61 14 0 99 289 275 237 138 103 96 61 2 0 0 3 0 61 200 251 382 586 1011 1379 1697 1183 904 606 595 615 582 642 819 919 1045 1050 981 941 933 864 606 228 82 198 256
393 189 3 0 9 2 0 0 0 0 0 0 6 0 0 0 0 0 287 334 807 1564 1627 1205 844 641 272 0 1 356 1241 1235 1366 1408 1292 1111 1023 811 501 141 105 35 128 173
271 33 0 0 0 0 0 0 6 10 0 1 3 2 7 8 36 163 872 905 969 795 388 75 3 132 0 0 1 0 1 110 3 19 1292 1096 539 345 321 219 109 130 80 15
125 16 0 0 0 0 0 0 0 0 0 0 10 168 421 512 721 818 970 743 769 286 187 131 57 94 0 0 0 0 0 0 0 720 684 274 89 112 135 0 0 0 0 0
0 0 0 0 0 0 0 0 0 0 0 3 44 588 1039 1209 962 651 510 338 98 87 19 1 34 10 0 0 0 1 6 25 619 649 579 187 0 0 0 0 0 0 0 0
0 0 0 0 0 0 0 0 0 0 0 0 0 3 686 1044 849 595 307 216 105 78 1 0 0 0 0 0 0 142 743 381 370 190 152 126 10 0 0 0 0 0 0 0
0 0 0 0 0 0 0 0 0 0 0 0 0 0 0 933 815 379 271 169 60 0 0 0 17 292 556 641 659 544 457 271 210 111 153 119 189 100 8 0 0 0 0 0
0 0 0 0 0 0 0 0 0 0 0 0 0 0 0 648 627 513 438 225 81 24 95 194 543 646 453 367 293 259 319 246 113 83 41 19 0 0 0 0 0 0 0 0
0 0 0 0 0 0 0 0 0 0 0 0 0 0 0 9 373 292 295 254 189 495 508 497 421 299 230 374 303 307 125 3 31 86 10 11 0 0 0 0 0 0 0 0
0 0 0 0 0 0 0 0 0 0 0 0 0 0 0 0 283 371 457 175 138 98 89 157 49 0 185 293 390 217 148 17 2 0 0 0 0 0 0 0 0 0 0 0
0 0 0 0 0 0 0 0 0 0 0 0 0 0 47 151 448 590 378 52 58 101 19 30 256 359 355 356 358 119 88 16 18 6 0 0 1 0 0 0 0 0 0 0
0 0 0 0 0 0 0 0 0 0 0 0 0 20 225 350 434 378 255 181 50 97 126 65 2 59 250 257 131 122 48 31 0 0 0 0 1 2 0 3 0 0 0 0
0 0 0 0 0 0 0 0 0 0 0 0 0 249 243 96 47 26 1 0 36 24 4 52 125 285 375 265 104 0 0 0 0 0 0 0 0 0 0 0 0 0 0 0
0 0 0 0 0 0 0 3 24 4 58 167 267 253 217 262 395 300 173 137 31 312 261 133 122 286 288 28 0 0 0 0 0 0 0 0 0 0 0 0 0 0 0 0
0 0 3 0 0 0 2 39 85 26 22 211 3 0 91 244 169 92 60 86 0 4 5 11 14 17 0 0 0 0 0 5 1 0 0 0 0 0 0 0 0 0 0 0
8 0 4 2 0 0 4 22 38 62 0 108 136 135 122 38 12 7 10 0 0 0 0 0 0 0 0 0 0 0 0 0 0 0 0 0 0 0 0 0 0 0 0 0
1 4 11 7 8 0 4 26 18 32 66 100 84 83 94 29 1 0 0 0 0 0 0 0 0 0 0 0 0 0 0 0 0 0 0 0 0 0 0 0 0 0 0 0
5 16 14 2 9 1 12 12 7 47 14 33 16 1 0 0 0 0 0 0 0 0 0 0 0 0 0 0 0 0 0 0 0 0 0 0 0 0 0 0 0 0 0 0
14 7 6 1 1 0 1 17 0 4 10 11 30 5 4 0 0 0 0 0 0 0 0 0 0 0 0 0 0 0 0 0 0 0 0 0 0 0 0 0 0 0 0 0
4 6 0 7 14 33 22 10 0 5 17 28 38 28 15 19 3 1 0 1 0 0 0 0 0 0 0 0 0 0 0 0 0 0 0 0 0 0 0 0 0 0 0 0

GFSNGP_con_mlcape_015.txt.gz
CAPE
0 0 0 0 0 0 0 0 0 0 0 0 0 1 6 11 8 0 0 0 17 68 176 281 371 723 1382 1490 1247 819 527 240 0 0 0 42 116 49 12 3 0 30 1 4
0 0 0 0 0 0 0 0 0 0 0 0 0 0 0 0 0 0 0 0 48 75 87 194 372 736 1173 1374 1232 839 630 229 0 0 3 8 75 0 5 0 3 0 57 44
0 0 0 0 0 0 0 0 0 0 0 0 0 0 0 0 0 0 0 0 2 72 125 203 517 859 1039 1197 1143 848 419 127 1 11 66 0 0 3 0 0 0 27 76 124
0 0 0 0 0 0 0 0 0 0 0 0 0 0 0 0 0 0 0 5 67 144 267 308 273 629 906 1044 1054 847 297 146 20 0 55 32 22 76 50 7 36 51 147 216
0 0 0 8 21 31 6 2 0 0 0 2 0 0 0 0 0 0 0 0 0 0 4 161 400 573 775 840 897 758 363 277 284 215 23 24 69 192 146 156 134 211 246 257
0 0 0 9 3 20 11 23 3 0 0 0 0 11 7 0 0 0 0 0 0 0 14 47 220 764 868 841 869 891 396 188 190 85 53 84 163 257 244 197 211 219 207 212
4 2 32 0 0 0 43 2 0 0 0 0 5 0 2 0 2 6 24 32 75 207 146 228 526 655 682 788 825 591 351 200 171 58 110 119 82 127 175 221 166 238 200 106
60 20 48 0 0 15 1 0 0 0 0 0 0 0 0 0 0 10 83 168 337 347 496 647 778 515 686 750 441 342 340 347 217 155 205 110 85 6 0 4 37 103 121 117
42 3 0 0 0 0 0 0 0 0 0 3 43 27 16 8 0 39 155 70 91 270 462 587 631 759 833 437 151 115 117 60 8 0 3 5 9 1 0 0 10 105 106 45
4 0 0 0 0 0 0 0 0 0 0 0 0 30 99 204 290 228 304 249 246 331 360 509 350 341 313 71 78 136 113 10 0 0 0 0 0 0 8 5 50 62 74 50
12 0 0 0 0 0 0 0 0 0 0 0 0 0 22 80 429 545 458 502 527 554 515 437 269 180 62 47 114 123 38 0 0 0 0 0 0 0 1 3 2 37 17 0
20 0 0 0 0 0 0 0 0 0 0 0 0 0 0 0 177 693 678 601 686 645 535 309 40 3 0 0 0 0 0 0 0 0 0 0 0 0 0 0 0 0 0 0
7 0 0 0 0 0 0 0 0 0 0 0 0 0 0 2 417 625 666 717 611 467 271 31 19 11 0 0 0 0 0 0 0 0 0 11 0 0 0 0 0 0 0 0
0 0 0 0 0 0 0 0 0 0 0 0 0 0 0 0 55 496 500 236 94 106 55 29 20 8 0 0 0 0 0 0 3 19 33 12 0 0 0 0 0 0 0 0
0 0 0 0 0 0 0 0 0 0 0 0 0 0 0 0 0 0 172 279 143 11 2 0 0 0 0 0 0 0 38 69 49 28 16 3 0 0 0 0 0 0 0 0
0 0 0 0 0 0 0 0 0 0 0 0 0 0 0 0 0 0 9 267 245 93 2 2 2 104 160 116 109 79 35 10 17 20 9 0 0 0 0 0 0 0 0 0
0 0 0 0 0 0 0 0 0 0 0 0 0 0 0 0 0 0 0 98 177 57 0 3 272 242 194 203 171 88 11 4 21 19 19 0 0 0 0 0 0 0 0 0
0 0 0 0 0 0 0 0 0 0 0 0 0 0 0 0 0 0 48 19 91 41 63 117 196 132 15 47 79 151 90 5 3 12 1 0 0 0 0 0 0 0 0 0
0 0 0 0 0 0 0 0 0 0 0 0 0 0 0 0 0 28 73 92 125 71 15 20 22 32 34 164 184 144 87 56 41 23 0 0 0 0 0 0 1 0 0 0
0 0 0 0 0 0 0 0 0 0 0 0 0 0 0 0 26 55 17 48 21 14 0 69 67 66 90 103 10 16 3 13 4 0 0 0 0 0 0 0 0 0 0 0
0 0 0 0 0 0 0 0 0 0 0 0 0 0 0 0 7 5 0 0 15 28 86 85 39 69 40 0 0 0 0 0 10 19 5 2 0 0 0 0 0 0 0 0
0 0 0 0 0 0 0 0 0 0 0 0 0 0 5 21 7 11 24 0 21 32 21 6 11 24 0 0 0 0 0 0 0 0 1 0 0 0 0 0 0 0 0 0
0 0 0 0 0 0 0 0 0 0 0 0 0 0 0 0 0 1 5 0 0 0 0 0 0 0 0 0 0 0 0 0 0 0 0 0 0 0 0 0 0 0 0 0
0 0 0 0 0 0 0 0 1 7 0 0 0 0 0 0 0 0 0 0 1 0 0 0 0 0 0 0 0 0 0 0 0 0 0 0 0 0 0 0 0 0 0 0
0 0 0 0 0 0 0 0 0 0 0 6 4 0 0 0 8 3 2 14 5 0 0 0 0 0 0 0 0 0 0 0 0 0 0 0 0 0 0 0 0 0 0 0
0 0 0 0 0 0 0 0 0 0 0 0 1 14 10 0 0 0 0 6 3 0 0 0 0 0 0 0 0 0 0 0 0 0 0 0 0 0 0 0 0 0 0 0
0 0 0 0 0 0 0 3 5 2 0 0 0 3 13 13 4 0 0 0 0 0 0 0 0 0 0 0 0 0 0 0 0 0 0 0 0 0 0 0 0 0 0 0

GFSNGP_con_mlcape_021.txt.gz
CAPE
0 0 0 0 0 0 0 0 0 0 0 0 0 0 0 0 21 31 21 79 126 173 394 804 1052 1170 1290 1392 1521 1535 1769 1327 851 329 247 99 0 0 0 0 0 0 0 0
0 0 0 0 0 0 0 0 0 0 0 0 0 0 0 0 5 22 42 86 116 193 353 556 819 932 1266 1481 1655 1766 1607 1322 817 388 360 174 1 0 0 0 0 0 0 1
0 0 0 0 0 0 0 0 0 0 0 0 0 0 0 0 0 0 72 98 163 243 363 484 617 827 928 1235 1674 1727 1507 1232 599 520 514 278 1 0 0 0 0 0 0 4
0 0 0 0 0 0 0 0 0 0 0 0 0 0 0 0 0 0 88 189 241 230 341 452 533 659 890 1248 1534 1462 1351 1000 674 561 487 274 14 0 0 0 0 0 0 37
21 5 0 0 0 0 0 0 0 0 0 0 0 0 0 0 0 0 21 86 142 148 203 201 361 661 938 1222 1426 1469 1227 937 801 653 527 239 27 0 0 0 12 6 27 110
12 2 0 0 0 0 0 0 0 0 0 0 0 0 5 0 0 0 22 102 177 212 296 393 382 739 716 851 1027 1018 1153 977 845 686 526 284 87 14 11 2 1 110 80 87
23 0 0 0 0 15 0 0 0 0 0 0 4 3 1 0 4 25 60 138 242 381 355 394 453 393 362 516 542 876 1139 998 802 641 435 294 169 111 102 93 135 139 53 93
131 0 0 0 14 112 16 0 0 0 0 0 10 35 67 111 217 279 304 364 370 241 283 472 588 684 485 563 1155 1169 928 880 799 680 428 326 265 285 298 308 285 206 185 89
2 5 0 0 4 0 1 23 51 280 334 183 154 181 170 107 74 99 157 198 265 174 269 533 657 647 492 392 638 705 932 878 735 603 489 387 345 458 448 368 454 256 65 103
2 0 0 0 0 0 0 0 0 0 0 23 36 89 172 223 212 187 258 261 394 236 195 377 577 541 644 573 779 799 824 796 735 716 675 621 596 544 431 271 243 107 5 9
1 0 0 0 0 0 0 0 0 0 0 0 28 137 186 289 323 361 413 343 326 418 491 499 574 678 624 467 389 614 667 638 597 394 233 0 0 0 0 0 0 3 24 37
0 1 0 0 0 0 0 0 0 0 0 0 0 2 25 64 419 538 488 430 487 494 506 449 448 467 392 267 359 421 342 225 169 59 0 0 0 0 0 0 0 0 0 57
1 0 0 0 0 0 0 0 0 0 0 0 0 0 0 0 3 223 459 483 548 516 349 378 403 406 262 256 274 176 2 0 0 0 0 0 0 0 0 0 0 0 0 0
0 0 0 0 0 0 0 0 0 0 0 0 0 0 0 0 0 0 0 392 539 367 275 252 302 317 106 63 1 0 0 0 0 0 0 0 0 0 0 0 0 0 0 0
0 0 0 0 0 0 0 0 0 0 0 0 0 0 0 0 0 0 0 19 210 353 279 186 172 143 0 0 0 0 0 0 0 0 4 11 12 0 0 0 0 0 0 0
0 0 0 0 0 0 0 0 0 0 0 0 0 0 0 0 0 0 0 0 8 230 176 114 123 114 30 0 0 0 0 14 140 170 57 64 28 6 0 0 0 0 0 0
0 0 0 0 0 0 0 0 0 0 0 0 0 0 0 0 0 0 0 0 0 69 58 29 42 0 0 0 64 78 145 101 35 89 103 107 92 47 0 0 0 0 0 0
0 0 0 0 0 0 0 0 0 0 0 0 0 0 0 0 0 0 0 0 1 0 0 0 0 0 53 104 139 143 140 131 147 177 148 113 115 47 4 0 0 0 0 0
0 0 0 0 0 0 0 0 0 0 0 0 0 0 0 0 0 0 1 0 0 18 0 0 0 0 0 0 62 141 180 203 194 178 202 124 78 93 50 10 4 1 0 0
0 0 0 0 0 0 0 0 0 0 0 0 0 0 0 0 0 8 14 3 6 0 2 0 36 47 70 2 18 101 130 143 159 172 136 132 156 111 22 1 0 0 0 0
0 0 0 0 0 0 0 0 0 0 0 0 0 0 0 0 0 0 0 0 1 27 25 0 9 6 7 0 0 7 28 61 86 119 95 83 75 62 10 1 3 11 0 4
0 0 0 0 0 0 0 0 0 0 0 0 0 0 0 0 0 0 0 2 5 0 0 0 0 0 0 0 0 0 0 0 4 27 44 41 57 48 36 36 32 6 4 11
0 0 0 0 0 0 0 0 0 0 0 0 0 0 0 0 0 0 0 0 0 0 0 0 0 0 0 0 0 0 0 0 0 0 0 0 4 20 49 38 9 2 5 2
0 0 0 0 0 0 0 0 0 0 0 0 0 0 0 0 0 0 0 0 0 0 0 0 0 0 0 0 0 0 0 0 0 0 0 0 0 0 0 0 0 10 0 6
0 0 3 8 0 0 0 0 0 2 0 0 0 0 0 0 0 0 0 0 0 3 13 0 0 0 0 0 0 0 0 0 0 0 0 0 0 0 0 0 0 4 3 6
21 21 10 5 0 0 0 0 6 16 5 0 0 0 5 15 12 0 0 0 1 5 17 22 1 0 0 0 0 0 0 0 0 0 0 0 0 0 0 0 0 0 0 0
6 0 7 7 0 0 0 0 0 6 0 0 0 2 4 5 9 4 10 23 20 9 2 1 0 0 0 0 0 0 0 0 0 0 0 0 0 0 0 0 0 0 0 0

GFSNGP_con_mlcape_024.txt.gz
CAPE
0 0 0 0 0 0 0 0 0 0 0 0 0 0 0 0 0 0 223 566 566 730 1015 1392 1566 1801 1951 1844 1840 1786 1951 2058 2252 2360 1649 1280 1612 583 20 0 0 0 0 0
0 0 0 0 0 0 0 0 0 0 0 0 0 0 0 0 0 0 69 659 768 900 1153 1574 1791 2031 2079 2004 1947 1963 2080 2260 2404 2227 1367 1499 1297 607 130 2 0 20 0 4
1 7 1 18 0 0 0 0 0 0 0 0 0 0 0 0 0 0 4 348 662 920 1083 1625 1861 2100 2129 2149 2108 2220 2349 2577 2480 2197 1635 1389 1291 867 442 34 1 162 112 139
2 44 53 0 0 0 0 0 0 0 0 0 0 0 0 0 0 14 34 97 669 1006 1218 1619 1702 1933 1957 2116 2316 2468 2605 2633 2476 2207 1653 1518 1380 1008 511 77 16 98 170 246
42 106 49 12 1 0 0 0 0 0 0 0 0 0 0 0 5 45 70 240 574 997 1198 1534 1441 1671 1844 1992 2301 2526 2552 2503 2344 1858 1743 1638 1455 1143 621 333 112 160 218 314
179 106 93 215 137 128 108 0 0 0 0 0 0 0 0 21 91 1 35 392 837 816 949 1327 1394 1588 1884 2118 2363 2308 2251 2270 2050 1838 1805 1725 1267 1146 816 579 333 367 401 607
66 153 182 139 68 202 23 38 118 0 0 0 0 0 93 129 168 250 455 738 877 915 1081 1319 1480 1833 2037 2074 2101 2183 2179 2101 2023 1855 1608 1408 1305 937 739 615 467 546 577 543
183 208 175 32 225 199 354 520 229 188 134 51 118 226 360 534 600 619 831 1020 1306 1526 1540 1312 1813 2071 2092 2067 2246 2283 2159 1927 1723 1662 1446 1166 992 702 503 383 335 436 649 537
395 397 38 35 174 209 356 407 707 421 311 320 361 467 558 654 775 816 921 1009 1218 1402 1553 1762 1938 1942 1526 1420 1764 1648 1731 1747 1417 1115 1135 992 775 702 535 479 489 595 691 622
169 28 31 7 0 6 12 70 204 582 611 511 428 402 394 406 485 588 685 736 880 1083 1297 1413 1546 1733 1363 1532 1711 1488 1621 1459 1118 978 825 725 772 728 692 618 601 608 648 550
106 9 0 0 0 0 0 0 3 140 374 556 649 737 791 853 776 823 890 1131 1324 1416 1247 1449 1669 1471 1538 1343 1485 1443 1337 1201 940 762 589 352 5 65 343 12 159 550 145 71
80 7 15 0 0 0 0 0 0 0 1 9 50 131 375 758 985 998 812 1005 956 1153 1289 1171 1404 1164 985 1377 1206 1218 1141 1041 864 736 620 537 89 0 0 0 0 0 0 119
224 24 0 0 0 0 0 0 0 0 0 0 0 0 17 163 564 883 1099 1233 1151 894 1124 1298 1056 996 1070 835 919 870 855 719 393 366 267 167 25 0 0 0 0 0 0 0
10 0 0 0 0 0 0 0 0 0 0 0 0 0 0 0 13 123 834 1007 797 799 962 1136 1019 839 857 865 642 186 14 0 21 3 0 0 0 0 0 0 0 0 0 0
0 0 0 0 0 0 2 0 0 0 0 0 0 0 0 0 0 0 104 504 935 940 759 820 840 624 567 304 109 35 12 0 0 0 0 0 12 123 78 19 2 0 0 0
0 0 0 0 3 7 1 0 0 0 0 0 0 0 0 0 0 0 0 41 175 470 859 844 874 541 243 99 16 62 38 0 0 0 38 102 136 63 42 56 19 0 0 0
0 0 0 0 11 7 1 7 0 0 0 0 0 0 0 0 0 0 0 1 282 664 724 760 856 640 531 298 222 292 73 0 6 20 9 34 64 83 81 79 64 58 43 3
44 25 33 32 24 32 9 16 3 0 0 0 0 0 0 0 0 0 0 21 321 341 453 482 437 467 451 421 346 189 120 48 47 105 115 114 140 154 136 98 113 88 36 0
34 40 59 35 6 2 1 0 0 0 0 1 2 0 0 2 3 1 113 166 190 173 167 76 0 209 344 275 271 187 184 220 200 216 181 104 141 143 147 158 118 71 13 5
18 9 3 1 1 3 3 3 4 4 3 3 14 14 2 5 26 33 36 25 28 75 109 66 211 203 240 28 49 169 197 208 227 255 235 183 164 196 167 99 90 4 6 1
0 0 0 0 0 0 12 22 18 10 7 5 3 5 4 3 2 26 42 38 55 5 0 5 65 72 29 0 0 37 45 64 91 141 175 81 179 181 209 124 35 11 4 5
0 0 0 0 0 0 0 3 8 12 5 1 2 6 2 0 2 0 15 22 0 0 7 16 1 0 0 0 0 1 8 16 32 48 72 124 164 182 201 103 34 12 29 20
0 0 0 0 0 0 0 0 0 0 1 0 1 0 1 6 13 19 27 5 0 0 0 0 0 0 0 0 0 0 0 0 0 0 0 6 23 14 23 34 15 33 27 14
10 7 26 16 3 0 0 4 0 0 0 0 0 0 3 8 29 28 27 0 0 0 0 0 0 0 0 0 0 0 0 0 0 0 0 0 0 0 10 19 41 44 15 6
55 52 46 40 17 4 0 10 12 12 0 1 0 0 0 1 0 0 1 28 2 0 29 0 0 0 0 0 0 0 0 0 0 0 0 0 0 0 0 1 12 19 28 33
60 34 44 52 43 7 7 4 3 11 4 9 6 5 5 11 16 11 24 0 7 9 2 19 14 3 0 2 1 0 0 0 0 0 0 0 0 0 0 0 0 0 0 1
0 0 3 6 1 0 0 0 5 11 10 6 6 16 11 8 11 2 3 15 31 39 37 32 28 21 17 15 20 22 11 2 0 0 0 0 0 0 0 0 0 0 0 0

GFSNGP_con_mlcape_030.txt.gz
CAPE
0 0 0 0 0 0 0 0 0 0 0 0 1 53 11 24 0 9 3 4 7 82 277 411 1389 1387 1291 1290 1403 1721 2350 2840 3194 3665 3592 3578 3420 3486 3326 3366 3135 2242 1531 1219
0 0 0 0 0 0 0 0 0 0 0 0 0 33 159 4 0 0 15 6 100 213 540 474 1619 1919 1607 1595 1566 1577 1881 2567 2935 3369 3792 3795 3664 3536 3425 3300 2955 2195 1496 1052
0 0 0 0 0 0 0 0 0 0 0 0 0 2 62 125 11 142 38 0 32 576 895 1118 1847 2229 2073 1912 2121 1652 2003 2319 2738 3266 3786 3843 3827 3598 3508 3276 2725 1958 1336 881
0 0 0 0 0 0 0 0 0 0 0 0 0 0 0 0 35 55 74 2 5 0 894 1449 1727 2051 2823 2449 2475 2327 2439 2772 3065 3572 3972 4031 3893 3692 3400 3185 2436 1701 1085 729
0 0 0 0 0 0 1 0 2 0 0 0 0 0 0 0 0 0 0 17 97 22 31 1091 1525 1861 2423 3071 2704 2827 2822 3519 3627 3873 4264 4097 3813 3521 3089 3061 2201 1713 1040 689
0 1 0 0 0 2 8 1 4 2 5 4 45 11 0 0 0 0 0 0 0 15 18 162 1292 2136 2604 2803 3222 2973 3457 3466 3936 4303 4163 3919 3559 3151 3058 3044 2223 1503 1014 814
4 3 0 3 29 91 103 272 782 487 298 165 143 217 323 164 37 0 2 0 0 5 224 588 1558 2205 2940 3106 3367 3383 3706 3916 4059 4033 3994 3736 3018 2518 2468 2502 2214 1628 1104 817
37 28 19 124 278 109 684 974 1048 977 803 627 521 335 254 488 146 331 434 468 310 399 511 2519 2259 2617 3407 3554 3699 3692 3597 3911 3824 3758 3211 2985 2523 2046 2113 2013 1734 1371 1034 796
25 67 356 163 1031 874 601 643 961 871 659 485 433 407 165 1006 1062 821 969 1344 1341 1013 2490 3300 3506 3503 3555 3860 3683 3641 3575 3550 3214 2835 2675 2384 2085 2025 1539 1310 1123 990 847 760
27 14 401 346 169 473 639 836 964 971 801 701 635 512 830 1306 1497 1531 1853 2179 2186 2638 3138 3635 3692 3739 3971 3701 3394 3213 3186 3070 2931 2481 2116 1825 1600 1371 1074 922 905 1028 1040 1098
135 475 538 388 347 363 604 893 1052 1455 1610 1797 1732 1859 1907 2012 1994 1967 2283 2762 2815 3112 3273 3682 3848 3721 3632 3388 3258 3096 2989 2434 2041 1711 1409 608 186 332 888 383 586 882 1002 1127
183 109 52 178 167 462 472 600 726 912 1160 1353 1640 1659 1703 1786 1993 2159 2462 2589 2775 2913 2949 3130 3032 2779 2467 2909 3060 2589 2071 1759 1460 1158 737 404 382 157 0 0 0 4 200 414
1 1 0 7 2 3 2 3 85 68 144 248 774 1278 1367 1412 1250 1503 1789 1936 1864 1793 1857 2060 2666 2802 3071 2753 2397 1946 1542 1457 1349 1199 917 712 451 235 5 0 0 0 0 0
0 0 6 0 0 0 0 0 0 0 0 0 0 121 915 991 1302 1410 1678 1662 1754 1819 1879 2109 2140 2246 2369 2102 2158 1983 1668 1321 1249 1285 1253 1036 603 277 0 0 0 0 0 0
10 0 0 0 0 0 0 0 0 0 0 0 0 0 0 208 681 1027 1443 1473 1521 1898 1824 1817 1820 1770 1763 1831 1477 1352 1272 1206 882 761 627 488 304 173 0 0 0 0 0 0
0 0 1 0 0 0 0 0 0 0 0 0 0 0 0 0 0 9 526 1209 1199 1369 1409 1631 1661 1443 1083 819 601 486 291 240 238 96 15 26 7 2 4 20 0 0 0 0
1 1 1 0 0 0 0 0 0 0 1 0 0 0 0 0 0 0 27 801 930 1346 1298 1349 1338 1116 873 772 786 292 9 0 0 3 0 0 6 11 14 19 17 1 0 0
0 0 0 0 0 0 0 0 1 0 0 39 47 8 0 0 0 0 10 653 580 710 785 697 693 694 747 807 733 408 15 7 12 49 40 54 11 21 31 37 65 63 32 0
1 0 0 2 0 0 9 24 3 33 43 79 102 60 15 13 10 91 175 113 74 50 54 8 0 164 500 266 306 122 128 41 10 39 16 25 50 54 110 24 1 1 0 0
63 21 38 76 77 89 105 96 45 49 46 49 59 69 101 160 98 81 104 91 86 106 142 159 198 254 319 231 78 131 103 113 113 63 10 4 99 17 32 18 20 7 0 1
26 28 37 27 42 38 60 79 72 64 52 59 34 36 47 61 84 102 44 53 64 77 53 24 0 0 17 2 3 32 77 53 116 153 53 34 48 22 56 65 62 54 26 11
29 37 23 19 10 8 15 15 15 16 10 20 38 25 35 65 26 16 21 23 7 0 0 0 0 0 0 0 0 12 53 27 24 27 30 39 60 27 44 45 42 45 45 23
35 39 22 36 23 16 12 0 1 3 2 0 19 22 15 16 34 44 13 0 1 0 0 0 0 0 0 0 0 0 0 0 0 21 53 56 39 29 28 34 38 37 35 30
12 27 16 0 37 53 36 19 29 3 3 0 0 1 22 32 29 14 4 0 0 0 0 0 0 0 0 0 0 0 0 0 0 1 6 4 15 6 40 37 28 25 44 21
18 50 3 0 27 11 23 12 56 8 36 33 27 17 4 5 3 2 42 21 0 0 0 0 0 0 0 0 0 0 0 0 0 0 0 0 0 0 0 0 0 32 45 39
0 23 0 2 0 0 0 5 1 0 8 6 8 4 15 12 10 19 39 36 38 25 9 20 11 1 0 9 10 6 8 9 0 0 0 0 0 0 0 0 0 0 0 11
10 0 13 2 0 0 0 0 0 0 0 0 0 0 1 29 33 16 5 39 22 6 8 36 6 5 4 6 28 46 22 14 3 1 9 19 15 8 7 6 0 0 0 0

GFSNGP_con_mlcape_033.txt.gz
CAPE
0 0 0 0 0 0 0 0 0 0 0 0 0 0 130 93 46 5 2 39 17 285 413 564 568 715 1064 1392 1470 2326 2544 2850 2857 3016 3143 3259 3269 3284 2596 2812 2600 2014 1499 1181
0 0 0 0 0 0 0 0 0 0 0 0 0 12 65 136 37 28 61 41 78 196 588 625 616 594 803 1122 1425 1435 2314 2533 2969 2915 3287 3355 3312 3254 3125 2595 2891 2571 1840 1437
0 0 0 0 0 0 0 0 0 0 0 0 0 0 0 89 53 35 10 22 28 64 199 683 764 793 800 855 1095 1383 1409 2341 2763 2979 3115 3324 3370 3295 3305 3044 3077 2905 2291 1749
0 0 0 0 0 0 0 0 0 0 0 0 0 0 8 11 44 19 18 24 3 157 243 332 1004 1183 990 969 1073 1408 1670 1901 2548 2755 3144 3402 3491 3443 3398 3320 3168 2797 2301 1895
0 0 0 0 0 0 0 0 0 0 0 0 0 0 0 0 0 0 0 1 39 329 427 563 1434 1662 1617 1308 1352 1271 1662 1989 2496 2754 3166 3446 3596 3617 3497 3364 3042 2566 2082 1594
0 0 0 0 0 0 0 0 31 9 0 0 0 0 0 58 7 0 0 0 0 0 0 821 1063 2189 2083 1834 1839 1644 1600 2021 2340 2795 3252 3591 3708 3679 3412 3166 2838 2148 1800 1411
0 0 0 0 0 0 0 14 437 235 159 95 45 105 68 24 119 47 24 0 0 0 0 109 790 1888 2346 2314 2064 2410 2388 2907 2909 3236 3638 3861 3720 3495 3309 2850 2522 2184 1712 1260
0 6 1 0 3 134 959 883 790 593 464 264 190 52 24 430 562 658 768 819 775 132 40 116 109 1497 1795 2417 2672 2757 3399 3513 3884 3935 3945 3651 3370 3090 2823 2545 2177 1765 1379 1013
15 49 207 657 705 731 663 761 628 696 438 289 188 12 827 1147 1063 961 959 1074 1348 1897 1696 1905 1553 1429 1683 2750 3470 3539 3693 3867 3959 3672 3362 3089 2798 2208 2040 2112 1853 1498 1264 980
47 27 56 39 48 186 502 806 1436 1691 1430 1370 1389 1598 1692 1582 1639 2155 2308 2387 2519 2862 2537 3000 3587 3511 3550 3809 3739 3676 3695 3481 3044 2821 2514 2124 1618 1611 1611 1541 1428 1310 1157 922
19 41 438 323 1 48 261 1382 1496 1637 1737 1750 1562 1794 1782 1850 2213 2705 2790 3314 3496 3490 3762 3792 3824 3866 3770 3668 3567 3396 3056 2440 2054 1697 1254 900 660 977 1159 757 923 1084 909 919
1 1 0 3 0 38 974 885 1059 1325 1483 1570 1732 1796 1742 1900 2313 2529 2699 2923 3370 3705 3735 3706 3611 3478 3295 3047 2757 2520 2029 1724 1251 878 754 648 501 126 0 19 60 301 619 625
1 2 0 0 0 0 1 88 128 436 710 853 1147 1202 1431 1517 1592 1805 2051 2257 2435 2672 2761 2929 2825 2581 2629 2415 1980 1847 1472 860 849 686 541 412 227 190 151 0 0 0 1 9
0 0 0 0 0 0 0 0 0 0 0 0 127 477 749 996 1326 1265 1254 1399 1390 1551 1669 1978 1994 2088 1870 1732 1635 1470 1200 997 1095 819 623 398 278 63 0 15 2 0 0 0
0 0 0 0 0 0 0 0 0 0 0 0 0 0 0 1 143 640 1169 1263 1257 1124 451 1377 1295 1156 1570 1635 1441 1243 1240 1190 1136 835 712 537 337 10 4 0 0 0 0 0
0 0 0 0 0 0 0 0 0 0 0 0 0 0 0 0 0 338 765 768 723 1160 1425 1260 958 857 816 1051 1272 1001 1143 1110 1033 1109 856 489 100 0 0 0 0 0 0 0
1 3 6 0 0 0 0 0 0 0 0 0 0 0 0 0 0 123 504 903 980 867 1022 921 864 669 496 353 224 8 0 99 87 96 138 175 132 16 2 0 0 0 0 0
0 3 9 14 18 4 0 0 0 0 0 0 0 0 0 0 0 6 231 461 484 537 540 478 624 602 353 216 256 15 0 0 8 0 1 8 22 69 41 17 2 0 0 0
6 20 28 12 2 7 10 8 0 0 0 0 0 0 0 14 48 68 38 46 11 0 0 0 35 93 101 49 26 0 0 6 62 53 12 46 33 22 21 10 0 0 1 0
57 40 36 28 22 29 18 8 6 20 20 8 0 0 31 62 26 0 0 4 37 42 63 43 0 0 0 0 0 0 0 2 44 31 15 10 27 26 41 0 12 15 0 0
55 49 52 42 27 41 61 36 5 3 10 43 40 41 41 110 92 77 53 13 9 10 0 0 3 5 0 3 0 0 46 46 7 29 20 2 19 41 35 10 7 6 0 0
31 28 31 45 11 2 0 0 1 9 30 24 33 21 39 24 0 6 14 0 0 0 0 0 0 0 0 0 0 3 45 126 94 52 47 63 31 51 41 41 12 20 14 6
21 17 8 40 42 34 9 0 0 0 1 28 18 8 4 4 10 0 0 0 0 0 0 0 0 0 0 0 0 0 0 16 64 67 59 53 29 40 29 12 36 29 32 16
26 2 2 36 56 33 11 21 0 6 24 1 12 39 30 29 16 0 0 0 0 0 0 0 0 0 0 0 0 0 0 0 0 0 16 75 51 21 11 13 0 11 12 17
13 0 0 0 4 2 0 18 4 7 0 1 2 8 5 0 1 29 12 6 0 0 0 0 0 0 0 0 0 0 0 0 0 0 0 0 0 0 0 0 17 24 32 58
14 10 0 0 0 0 0 0 3 0 0 0 0 0 0 3 7 6 0 1 10 3 0 11 5 5 0 0 0 0 2 0 1 0 0 0 0 0 0 0 0 0 0 56
0 0 0 0 0 0 0 0 0 0 0 0 0 0 0 1 0 0 0 0 0 0 0 1 0 0 0 0 3 0 0 2 3 5 5 4 0 0 0 0 3 1 0 0

GFSNGP_con_mlcape_036.txt.gz
CAPE
0 0 0 0 0 0 0 0 0 0 0 0 0 0 0 1 38 108 85 9 13 0 0 132 328 612 731 837 1673 2080 2272 2241 2121 2144 2298 2361 2385 2278 2002 1780 1790 1613 1439 1183
0 0 0 0 0 0 0 0 0 0 0 0 0 0 0 0 3 57 13 0 0 0 0 96 307 692 808 925 1548 1995 2294 2392 2523 2542 2562 2520 2597 2694 2439 2184 2160 1807 1512 1295
0 0 0 0 0 0 0 0 0 0 0 0 0 0 0 0 0 5 27 0 22 3 3 215 422 723 887 1029 1292 2050 2130 2434 2646 2757 2725 2726 2727 2842 2743 2455 2495 2164 1753 1520
0 0 0 0 0 0 0 0 0 0 0 0 0 0 0 0 0 0 0 4 15 126 219 319 438 550 910 1105 1306 1635 2320 2403 2745 2810 2757 2863 2941 2879 2880 2706 2534 2421 2073 1829
0 0 0 0 0 0 0 0 0 0 0 0 0 0 0 0 0 0 0 0 0 48 387 563 569 446 620 855 1201 1544 1766 2247 2422 2728 2688 2950 2923 2946 2944 2985 2701 2630 2278 2065
0 0 0 0 0 0 0 0 0 0 0 0 0 0 0 0 0 0 0 0 0 17 318 211 224 475 684 656 906 1171 1486 1561 2235 2644 2724 2856 2965 3016 3065 3064 2816 2572 2393 2301
0 0 0 0 0 0 0 0 2 0 0 0 0 0 0 0 0 0 0 0 0 0 10 246 583 1315 982 875 870 941 1196 1451 1592 2358 2563 2823 3067 3137 3125 3017 2666 2561 2458 1957
0 0 0 1 0 0 47 494 142 28 17 0 12 20 56 8 149 198 55 16 0 0 0 0 222 852 1282 1219 1230 1234 1155 1367 1761 2140 2496 2836 3151 3217 3015 2910 2618 2326 1593 1100
0 21 5 0 0 5 356 475 261 110 22 14 8 468 590 500 610 869 801 668 886 101 0 0 3 996 1033 998 1415 1686 1628 1654 1911 2304 2717 3228 3257 3041 2899 2536 2285 1662 1430 1242
0 11 0 0 0 0 369 1290 1139 618 428 335 799 1332 1519 1741 1867 1776 1500 1138 1551 1651 1103 865 1171 638 945 1553 1890 2076 2123 2678 2872 2947 3106 3150 3032 2714 2438 1882 1364 1098 1143 1279
0 0 0 0 0 0 991 1350 1415 1501 1508 1496 1610 1795 1995 2110 2256 2443 2472 2590 2588 2459 2302 1927 2307 2209 2151 2293 2716 3063 3161 3155 3014 2521 2408 1552 993 1179 1541 830 821 592 1287 908
0 1 13 1 2 0 21 134 405 1154 1407 1361 1623 1901 2122 2110 2294 2456 2343 2783 3092 3358 3483 3287 3237 3163 3128 3119 3003 2761 2536 2232 1664 1266 361 361 23 33 3 95 481 648 820 589
0 3 0 0 0 0 0 0 0 0 58 612 683 1212 1617 1843 2024 2209 2389 2594 2749 2713 2801 2857 2538 2601 2307 2186 2155 2183 1619 1033 586 503 277 238 70 24 19 0 0 3 83 196
0 0 0 0 0 0 0 0 0 0 0 0 11 135 500 747 968 1197 1360 1482 1554 1692 1647 1407 1431 1230 1183 1248 894 853 581 343 245 325 136 65 64 0 91 131 74 6 0 0
0 0 0 0 0 0 0 0 0 0 0 0 0 12 240 471 755 944 1167 1159 869 832 648 616 555 638 551 104 424 397 459 273 391 240 132 81 27 24 22 13 0 0 0 0
0 0 0 0 0 0 0 0 0 0 0 0 0 0 40 254 493 547 639 588 366 337 356 204 92 52 52 406 270 439 318 269 247 290 206 79 25 0 2 0 0 0 0 0
2 1 0 0 0 0 0 0 0 0 1 0 0 0 0 45 172 256 246 246 127 99 67 34 5 0 0 3 120 234 440 501 443 338 286 89 12 1 0 0 0 0 0 0
0 0 2 4 8 1 0 0 0 0 0 1 0 0 0 0 0 0 0 0 0 0 0 3 10 5 0 0 0 1 3 50 149 248 151 29 0 0 0 0 0 0 0 0
0 0 0 0 0 9 27 16 2 9 13 1 16 14 16 8 0 0 0 0 0 0 0 0 0 0 4 0 0 0 0 0 0 0 0 2 12 2 0 0 0 0 0 0
12 12 6 9 37 32 17 38 40 31 21 4 0 2 1 2 0 0 0 0 0 0 0 0 0 0 0 0 0 0 0 0 0 0 0 16 0 0 12 16 3 0 0 0
34 42 26 47 58 37 9 25 23 59 63 31 30 17 11 16 10 22 0 0 0 0 0 0 0 0 0 0 0 0 0 0 0 0 0 2 0 0 4 38 22 9 4 0
12 24 21 5 4 0 1 1 9 3 11 16 12 3 21 17 0 0 0 0 0 0 0 0 0 0 0 0 0 0 7 16 8 18 0 6 3 19 27 13 6 21 12 4
1 24 9 11 13 1 0 0 0 2 2 14 20 13 3 0 0 0 0 0 0 0 0 0 0 0 0 0 0 0 23 61 53 67 29 5 39 33 27 33 5 11 3 6
0 0 0 0 0 0 0 0 0 0 0 0 0 9 41 15 0 0 0 0 0 0 0 0 0 0 0 0 0 0 0 0 0 0 38 26 26 20 7 0 8 16 32 31
0 0 0 0 0 0 0 0 0 0 0 0 0 0 0 6 29 15 0 0 0 0 0 0 0 0 0 0 0 0 0 0 0 0 0 0 0 0 17 29 39 35 37 37
0 0 0 0 0 0 0 0 0 0 0 0 0 0 0 0 0 0 0 0 0 0 0 0 0 0 0 0 0 0 0 0 0 0 0 0 0 0 0 0 0 0 0 0
0 0 0 0 0 0 0 0 0 0 0 0 0 0 0 0 0 0 0 0 0 0 0 0 0 0 0 0 0 0 0 0 0 0 0 0 0 0 0 0 0 0 0 0